Aufgelaufene Messwerte:
Wetterdaten: aktuell Mittwoch, 25.04.2018 02:30
Datum Zeit Temp. Feuchte Luftdruck Regen Wind WRichtung WRichtung Sonnenschein Verdunstung UV-Index Solar Taupunkt Windchill Windben Empfang
25.04.2018 02:30 8,5 C 92 % 1006,3 hPa 0,0 mm 0,0 km/h (0 Bft) W-NW 284 0 min 0,000 mm 0,0 UV-I 0 W/m 7,3 C 8,5 C 0,0 km/h (0 Bft) 99,16 %
25.04.2018 02:25 8,5 C 92 % 1006,4 hPa 0,0 mm 0,0 km/h (0 Bft) W-NW 284 0 min 0,000 mm 0,0 UV-I 0 W/m 7,3 C 8,5 C 0,0 km/h (0 Bft) 99,11 %
25.04.2018 02:20 8,5 C 91 % 1006,4 hPa 0,0 mm 0,0 km/h (0 Bft) W-NW 286 0 min 0,000 mm 0,0 UV-I 0 W/m 7,1 C 8,5 C 0,0 km/h (0 Bft) 98,35 %
25.04.2018 02:15 8,6 C 91 % 1006,5 hPa 0,2 mm 0,0 km/h (0 Bft) W-NW 286 0 min 0,000 mm 0,0 UV-I 0 W/m 7,2 C 8,6 C 0,0 km/h (0 Bft) 97,46 %
25.04.2018 02:10 8,5 C 91 % 1006,5 hPa 0,0 mm 0,0 km/h (0 Bft) W-NW 286 0 min 0,000 mm 0,0 UV-I 0 W/m 7,1 C 8,5 C 0,0 km/h (0 Bft) 96,61 %
25.04.2018 02:05 8,6 C 91 % 1006,7 hPa 0,0 mm 0,0 km/h (0 Bft) W-NW 286 0 min 0,000 mm 0,0 UV-I 0 W/m 7,2 C 8,6 C 0,0 km/h (0 Bft) 98,20 %
25.04.2018 02:00 8,6 C 91 % 1006,9 hPa 0,0 mm 0,2 km/h (0 Bft) W-NW 286 0 min 0,000 mm 0,0 UV-I 0 W/m 7,2 C 8,6 C 4,8 km/h (1 Bft) 99,17 %
25.04.2018 01:55 8,6 C 90 % 1007,0 hPa 0,2 mm 0,0 km/h (0 Bft) W-NW 286 0 min 0,000 mm 0,0 UV-I 0 W/m 7,1 C 8,6 C 0,0 km/h (0 Bft) 99,17 %
25.04.2018 01:50 8,6 C 90 % 1007,1 hPa 0,0 mm 0,0 km/h (0 Bft) W-NW 286 0 min 0,000 mm 0,0 UV-I 0 W/m 7,1 C 8,6 C 0,0 km/h (0 Bft) 100,00 %
25.04.2018 01:45 8,6 C 89 % 1007,2 hPa 0,2 mm 0,0 km/h (0 Bft) W-NW 286 0 min 0,000 mm 0,0 UV-I 0 W/m 6,9 C 8,6 C 0,0 km/h (0 Bft) 100,00 %
25.04.2018 01:40 8,6 C 89 % 1007,2 hPa 0,0 mm 0,0 km/h (0 Bft) W-NW 286 0 min 0,000 mm 0,0 UV-I 0 W/m 6,9 C 8,6 C 0,0 km/h (0 Bft) 100,00 %
25.04.2018 01:35 8,6 C 89 % 1007,3 hPa 0,0 mm 0,0 km/h (0 Bft) W-NW 286 0 min 0,000 mm 0,0 UV-I 0 W/m 6,9 C 8,6 C 0,0 km/h (0 Bft) 99,15 %
25.04.2018 01:30 8,6 C 89 % 1007,5 hPa 0,2 mm 0,0 km/h (0 Bft) W-NW 286 0 min 0,000 mm 0,0 UV-I 0 W/m 6,9 C 8,6 C 0,0 km/h (0 Bft) 100,00 %
25.04.2018 01:25 8,6 C 89 % 1007,6 hPa 0,0 mm 0,0 km/h (0 Bft) W-NW 286 0 min 0,000 mm 0,0 UV-I 0 W/m 6,9 C 8,6 C 0,0 km/h (0 Bft) 99,15 %
25.04.2018 01:20 8,6 C 88 % 1007,9 hPa 0,2 mm 0,0 km/h (0 Bft) W-NW 286 0 min 0,000 mm 0,0 UV-I 0 W/m 6,7 C 8,6 C 0,0 km/h (0 Bft) 98,29 %
25.04.2018 01:15 8,7 C 88 % 1007,9 hPa 0,0 mm 0,0 km/h (0 Bft) W-NW 286 0 min 0,000 mm 0,0 UV-I 0 W/m 6,8 C 8,7 C 0,0 km/h (0 Bft) 97,50 %
25.04.2018 01:10 8,7 C 88 % 1008,0 hPa 0,2 mm 0,0 km/h (0 Bft) W-NW 286 0 min 0,000 mm 0,0 UV-I 0 W/m 6,8 C 8,7 C 0,0 km/h (0 Bft) 97,50 %
25.04.2018 01:05 8,7 C 88 % 1008,1 hPa 0,0 mm 0,0 km/h (0 Bft) W-NW 286 0 min 0,000 mm 0,0 UV-I 0 W/m 6,8 C 8,7 C 0,0 km/h (0 Bft) 97,46 %
25.04.2018 01:00 8,7 C 87 % 1008,2 hPa 0,0 mm 0,0 km/h (0 Bft) W-NW 286 0 min 0,000 mm 0,0 UV-I 0 W/m 6,7 C 8,7 C 0,0 km/h (0 Bft) 100,00 %
25.04.2018 00:55 8,8 C 88 % 1008,2 hPa 0,0 mm 0,0 km/h (0 Bft) W-NW 286 0 min 0,000 mm 0,0 UV-I 0 W/m 6,9 C 8,8 C 0,0 km/h (0 Bft) 98,33 %
25.04.2018 00:50 8,8 C 88 % 1008,4 hPa 0,0 mm 0,0 km/h (0 Bft) W-NW 286 0 min 0,000 mm 0,0 UV-I 0 W/m 6,9 C 8,8 C 0,0 km/h (0 Bft) 100,00 %
25.04.2018 00:45 8,8 C 88 % 1008,4 hPa 0,0 mm 0,0 km/h (0 Bft) W-NW 286 0 min 0,000 mm 0,0 UV-I 0 W/m 6,9 C 8,8 C 0,0 km/h (0 Bft) 100,00 %
25.04.2018 00:40 8,9 C 88 % 1008,5 hPa 0,0 mm 0,0 km/h (0 Bft) W-NW 286 0 min 0,000 mm 0,0 UV-I 0 W/m 7,0 C 8,9 C 0,0 km/h (0 Bft) 100,00 %
25.04.2018 00:35 8,9 C 87 % 1008,6 hPa 0,2 mm 0,0 km/h (0 Bft) W-NW 286 0 min 0,000 mm 0,0 UV-I 0 W/m 6,9 C 8,9 C 0,0 km/h (0 Bft) 98,17 %
25.04.2018 00:30 8,9 C 86 % 1008,7 hPa 0,0 mm 0,0 km/h (0 Bft) W-NW 286 0 min 0,000 mm 0,0 UV-I 0 W/m 6,7 C 8,9 C 0,0 km/h (0 Bft) 99,17 %
25.04.2018 00:25 9,0 C 86 % 1008,9 hPa 0,0 mm 0,0 km/h (0 Bft) W-NW 286 0 min 0,000 mm 0,0 UV-I 0 W/m 6,8 C 9,0 C 0,0 km/h (0 Bft) 100,00 %
25.04.2018 00:20 9,1 C 86 % 1009,0 hPa 0,0 mm 0,0 km/h (0 Bft) W-NW 287 0 min 0,000 mm 0,0 UV-I 0 W/m 6,9 C 9,1 C 0,0 km/h (0 Bft) 100,00 %
25.04.2018 00:15 9,1 C 85 % 1009,1 hPa 0,0 mm 0,0 km/h (0 Bft) W-NW 287 0 min 0,000 mm 0,0 UV-I 0 W/m 6,7 C 9,1 C 0,0 km/h (0 Bft) 97,44 %
25.04.2018 00:10 9,2 C 86 % 1009,1 hPa 0,0 mm 0,0 km/h (0 Bft) W-NW 287 0 min 0,000 mm 0,0 UV-I 0 W/m 7,0 C 9,2 C 0,0 km/h (0 Bft) 96,61 %
25.04.2018 00:05 9,2 C 86 % 1009,3 hPa 0,0 mm 0,0 km/h (0 Bft) W-NW 287 0 min 0,000 mm 0,0 UV-I 0 W/m 7,0 C 9,2 C 0,0 km/h (0 Bft) 98,17 %
25.04.2018 00:00 9,3 C 85 % 1009,4 hPa 0,2 mm 0,0 km/h (0 Bft) W-NW 287 0 min 0,000 mm 0,0 UV-I 0 W/m 6,9 C 9,3 C 0,0 km/h (0 Bft) 98,13 %
24.04.2018 23:55 9,3 C 85 % 1009,4 hPa 0,0 mm 0,0 km/h (0 Bft) W-NW 286 0 min 0,000 mm 0,0 UV-I 0 W/m 6,9 C 9,3 C 0,0 km/h (0 Bft) 100,00 %
24.04.2018 23:50 9,4 C 85 % 1009,7 hPa 0,2 mm 0,0 km/h (0 Bft) W-NW 287 0 min 0,000 mm 0,0 UV-I 0 W/m 7,0 C 9,4 C 0,0 km/h (0 Bft) 100,00 %
24.04.2018 23:45 9,4 C 84 % 1009,6 hPa 0,0 mm 0,0 km/h (0 Bft) W-NW 287 0 min 0,000 mm 0,0 UV-I 0 W/m 6,8 C 9,4 C 0,0 km/h (0 Bft) 100,00 %
24.04.2018 23:40 9,5 C 84 % 1009,7 hPa 0,0 mm 0,0 km/h (0 Bft) W-NW 287 0 min 0,000 mm 0,0 UV-I 0 W/m 6,9 C 9,5 C 0,0 km/h (0 Bft) 99,15 %
24.04.2018 23:35 9,6 C 84 % 1009,7 hPa 0,0 mm 0,0 km/h (0 Bft) W-NW 287 0 min 0,000 mm 0,0 UV-I 0 W/m 7,0 C 9,6 C 0,0 km/h (0 Bft) 100,00 %
24.04.2018 23:30 9,6 C 83 % 1009,7 hPa 0,2 mm 0,0 km/h (0 Bft) W-NW 287 0 min 0,000 mm 0,0 UV-I 0 W/m 6,9 C 9,6 C 0,0 km/h (0 Bft) 100,00 %
24.04.2018 23:25 9,7 C 83 % 1010,0 hPa 0,0 mm 0,0 km/h (0 Bft) W-NW 287 0 min 0,000 mm 0,0 UV-I 0 W/m 7,0 C 9,7 C 0,0 km/h (0 Bft) 100,00 %
24.04.2018 23:20 9,8 C 82 % 1010,0 hPa 0,2 mm 0,0 km/h (0 Bft) W-NW 287 0 min 0,000 mm 0,0 UV-I 0 W/m 6,9 C 9,8 C 0,0 km/h (0 Bft) 99,15 %
24.04.2018 23:15 9,8 C 82 % 1010,0 hPa 0,0 mm 0,0 km/h (0 Bft) W-NW 287 0 min 0,000 mm 0,0 UV-I 0 W/m 6,9 C 9,8 C 0,0 km/h (0 Bft) 98,33 %
24.04.2018 23:10 9,9 C 81 % 1010,0 hPa 0,0 mm 0,0 km/h (0 Bft) W-NW 287 0 min 0,000 mm 0,0 UV-I 0 W/m 6,8 C 9,9 C 0,0 km/h (0 Bft) 97,46 %
24.04.2018 23:05 9,9 C 81 % 1010,0 hPa 0,2 mm 0,0 km/h (0 Bft) W-NW 287 0 min 0,000 mm 0,0 UV-I 0 W/m 6,8 C 9,9 C 0,0 km/h (0 Bft) 96,69 %
24.04.2018 23:00 10,0 C 80 % 1010,1 hPa 0,0 mm 0,0 km/h (0 Bft) W-NW 287 0 min 0,000 mm 0,0 UV-I 0 W/m 6,7 C 10,0 C 0,0 km/h (0 Bft) 96,64 %
24.04.2018 22:55 10,1 C 80 % 1010,1 hPa 0,2 mm 0,0 km/h (0 Bft) W-NW 287 0 min 0,000 mm 0,0 UV-I 0 W/m 6,8 C 10,1 C 0,0 km/h (0 Bft) 99,15 %
24.04.2018 22:50 10,2 C 79 % 1010,0 hPa 0,0 mm 0,0 km/h (0 Bft) W-NW 287 0 min 0,000 mm 0,0 UV-I 0 W/m 6,7 C 10,2 C 0,0 km/h (0 Bft) 99,08 %
24.04.2018 22:45 10,2 C 79 % 1010,0 hPa 0,0 mm 0,0 km/h (0 Bft) W-NW 287 0 min 0,000 mm 0,0 UV-I 0 W/m 6,7 C 10,2 C 0,0 km/h (0 Bft) 99,19 %
24.04.2018 22:40 10,3 C 79 % 1010,0 hPa 0,2 mm 0,0 km/h (0 Bft) W-NW 287 0 min 0,000 mm 0,0 UV-I 0 W/m 6,8 C 10,3 C 0,0 km/h (0 Bft) 100,00 %
24.04.2018 22:35 10,4 C 78 % 1010,0 hPa 0,0 mm 0,0 km/h (0 Bft) W-NW 287 0 min 0,000 mm 0,0 UV-I 0 W/m 6,7 C 10,4 C 0,0 km/h (0 Bft) 100,00 %
24.04.2018 22:30 10,4 C 77 % 1010,1 hPa 0,0 mm 0,0 km/h (0 Bft) W-NW 286 0 min 0,000 mm 0,0 UV-I 0 W/m 6,5 C 10,4 C 0,0 km/h (0 Bft) 100,00 %
24.04.2018 22:25 10,5 C 77 % 1010,1 hPa 0,0 mm 0,1 km/h (0 Bft) W-NW 286 0 min 0,000 mm 0,0 UV-I 0 W/m 6,6 C 10,5 C 1,6 km/h (1 Bft) 100,00 %
24.04.2018 22:20 10,6 C 77 % 1010,1 hPa 0,0 mm 0,0 km/h (0 Bft) W-NW 286 0 min 0,000 mm 0,0 UV-I 0 W/m 6,7 C 10,6 C 3,2 km/h (1 Bft) 99,15 %
24.04.2018 22:15 10,7 C 77 % 1010,0 hPa 0,0 mm 0,4 km/h (0 Bft) W-NW 287 0 min 0,000 mm 0,0 UV-I 0 W/m 6,8 C 10,7 C 12,9 km/h (3 Bft) 99,16 %
24.04.2018 22:10 10,7 C 76 % 1010,0 hPa 0,0 mm 0,3 km/h (0 Bft) W 270 0 min 0,000 mm 0,0 UV-I 0 W/m 6,6 C 10,7 C 4,8 km/h (1 Bft) 97,44 %
24.04.2018 22:05 10,8 C 75 % 1010,1 hPa 0,0 mm 0,0 km/h (0 Bft) W 269 0 min 0,000 mm 0,0 UV-I 0 W/m 6,5 C 10,8 C 0,0 km/h (0 Bft) 98,13 %
24.04.2018 22:00 10,8 C 75 % 1010,0 hPa 0,0 mm 0,1 km/h (0 Bft) W 269 0 min 0,000 mm 0,0 UV-I 0 W/m 6,5 C 10,8 C 3,2 km/h (1 Bft) 96,75 %
24.04.2018 21:55 10,8 C 74 % 1010,2 hPa 0,0 mm 3,3 km/h (1 Bft) W 267 0 min 0,000 mm 0,0 UV-I 0 W/m 6,4 C 10,8 C 12,9 km/h (3 Bft) 97,46 %
24.04.2018 21:50 10,8 C 73 % 1010,2 hPa 0,0 mm 0,0 km/h (0 Bft) W 264 0 min 0,000 mm 0,0 UV-I 0 W/m 6,2 C 10,8 C 3,2 km/h (1 Bft) 100,00 %
24.04.2018 21:45 10,9 C 73 % 1010,3 hPa 0,0 mm 1,7 km/h (1 Bft) W 259 0 min 0,000 mm 0,0 UV-I 0 W/m 6,3 C 10,9 C 9,7 km/h (2 Bft) 100,00 %
24.04.2018 21:40 10,9 C 72 % 1010,2 hPa 0,0 mm 0,5 km/h (0 Bft) W-NW 287 0 min 0,000 mm 0,0 UV-I 0 W/m 6,1 C 10,9 C 9,7 km/h (2 Bft) 99,17 %
24.04.2018 21:35 10,9 C 72 % 1010,1 hPa 0,0 mm 0,0 km/h (0 Bft) W-NW 295 0 min 0,000 mm 0,0 UV-I 0 W/m 6,1 C 10,9 C 0,0 km/h (0 Bft) 100,00 %
24.04.2018 21:30 10,9 C 72 % 1010,1 hPa 0,0 mm 0,3 km/h (0 Bft) W-NW 296 0 min 0,000 mm 0,0 UV-I 0 W/m 6,1 C 10,9 C 6,4 km/h (2 Bft) 100,00 %
24.04.2018 21:25 11,0 C 71 % 1010,1 hPa 0,0 mm 0,7 km/h (0 Bft) W-NW 294 0 min 0,000 mm 0,0 UV-I 0 W/m 5,9 C 11,0 C 8,0 km/h (2 Bft) 100,00 %
24.04.2018 21:20 11,0 C 71 % 1010,2 hPa 0,0 mm 0,6 km/h (0 Bft) W 276 0 min 0,000 mm 0,0 UV-I 0 W/m 5,9 C 11,0 C 9,7 km/h (2 Bft) 100,00 %
24.04.2018 21:15 11,0 C 70 % 1010,2 hPa 0,0 mm 0,5 km/h (0 Bft) W 274 0 min 0,000 mm 0,0 UV-I 0 W/m 5,7 C 11,0 C 12,9 km/h (3 Bft) 100,00 %
24.04.2018 21:10 11,1 C 70 % 1010,2 hPa 0,0 mm 0,0 km/h (0 Bft) W 276 0 min 0,000 mm 0,0 UV-I 0 W/m 5,8 C 11,1 C 1,6 km/h (1 Bft) 97,50 %
24.04.2018 21:05 11,1 C 70 % 1010,3 hPa 0,0 mm 0,6 km/h (0 Bft) W 270 0 min 0,000 mm 0,0 UV-I 0 W/m 5,8 C 11,1 C 9,7 km/h (2 Bft) 96,67 %
24.04.2018 21:00 11,1 C 69 % 1010,3 hPa 0,0 mm 4,8 km/h (1 Bft) W-SW 258 0 min 0,025 mm 0,0 UV-I 0 W/m 5,6 C 11,1 C 19,3 km/h (3 Bft) 97,20 %
24.04.2018 20:55 11,2 C 70 % 1010,3 hPa 0,0 mm 2,0 km/h (1 Bft) W 281 0 min 0,000 mm 0,0 UV-I 0 W/m 5,9 C 11,2 C 16,1 km/h (3 Bft) 98,31 %
24.04.2018 20:50 11,2 C 69 % 1010,3 hPa 0,0 mm 1,7 km/h (1 Bft) W-NW 285 0 min 0,000 mm 0,0 UV-I 0 W/m 5,7 C 11,2 C 9,7 km/h (2 Bft) 99,15 %
24.04.2018 20:45 11,3 C 69 % 1010,2 hPa 0,0 mm 0,8 km/h (0 Bft) W-NW 296 0 min 0,000 mm 0,0 UV-I 0 W/m 5,8 C 11,3 C 9,7 km/h (2 Bft) 100,00 %
24.04.2018 20:40 11,3 C 68 % 1010,3 hPa 0,0 mm 5,2 km/h (1 Bft) W-NW 287 0 min 0,000 mm 0,0 UV-I 1 W/m 5,6 C 11,3 C 17,7 km/h (3 Bft) 100,00 %
24.04.2018 20:35 11,4 C 68 % 1010,3 hPa 0,0 mm 4,6 km/h (1 Bft) W-NW 285 0 min 0,000 mm 0,0 UV-I 5 W/m 5,7 C 11,4 C 16,1 km/h (3 Bft) 100,00 %
24.04.2018 20:30 11,5 C 68 % 1010,3 hPa 0,0 mm 6,4 km/h (2 Bft) NW 311 0 min 0,000 mm 0,0 UV-I 8 W/m 5,8 C 11,5 C 22,5 km/h (4 Bft) 99,15 %
24.04.2018 20:25 11,6 C 69 % 1010,4 hPa 0,0 mm 0,2 km/h (0 Bft) W 281 0 min 0,000 mm 0,0 UV-I 11 W/m 6,1 C 11,6 C 6,4 km/h (2 Bft) 100,00 %
24.04.2018 20:20 11,7 C 69 % 1010,4 hPa 0,0 mm 0,0 km/h (0 Bft) W 275 5 min 0,000 mm 0,0 UV-I 12 W/m 6,2 C 11,7 C 0,0 km/h (0 Bft) 100,00 %
24.04.2018 20:15 11,8 C 69 % 1010,3 hPa 0,0 mm 1,5 km/h (1 Bft) W 271 0 min 0,000 mm 0,0 UV-I 12 W/m 6,3 C 11,8 C 17,7 km/h (3 Bft) 100,00 %
24.04.2018 20:10 11,9 C 69 % 1010,3 hPa 0,0 mm 0,2 km/h (0 Bft) W-SW 256 0 min 0,000 mm 0,0 UV-I 13 W/m 6,4 C 11,9 C 4,8 km/h (1 Bft) 97,50 %
24.04.2018 20:05 12,0 C 69 % 1010,4 hPa 0,0 mm 4,7 km/h (1 Bft) W 280 0 min 0,000 mm 0,0 UV-I 14 W/m 6,5 C 12,0 C 20,9 km/h (4 Bft) 97,46 %
24.04.2018 20:00 12,1 C 68 % 1010,4 hPa 0,0 mm 5,0 km/h (1 Bft) W-NW 297 0 min 0,051 mm 0,0 UV-I 18 W/m 6,4 C 12,1 C 12,9 km/h (3 Bft) 97,44 %
24.04.2018 19:55 12,2 C 68 % 1010,4 hPa 0,0 mm 6,3 km/h (2 Bft) W-NW 285 0 min 0,000 mm 0,0 UV-I 20 W/m 6,5 C 12,2 C 14,5 km/h (3 Bft) 97,48 %
24.04.2018 19:50 12,3 C 67 % 1010,4 hPa 0,0 mm 7,3 km/h (2 Bft) W 276 0 min 0,000 mm 0,0 UV-I 26 W/m 6,4 C 12,3 C 14,5 km/h (3 Bft) 97,22 %
24.04.2018 19:45 12,4 C 67 % 1010,4 hPa 0,0 mm 8,2 km/h (2 Bft) W 269 0 min 0,000 mm 0,0 UV-I 35 W/m 6,4 C 12,4 C 17,7 km/h (3 Bft) 100,00 %
24.04.2018 19:40 12,5 C 67 % 1010,3 hPa 0,0 mm 12,0 km/h (2 Bft) W-NW 298 0 min 0,000 mm 0,0 UV-I 48 W/m 6,5 C 12,5 C 30,6 km/h (5 Bft) 100,00 %
24.04.2018 19:35 12,7 C 67 % 1010,4 hPa 0,0 mm 7,0 km/h (2 Bft) W-NW 290 0 min 0,000 mm 0,0 UV-I 44 W/m 6,7 C 12,7 C 27,4 km/h (4 Bft) 100,00 %
24.04.2018 19:30 12,8 C 68 % 1010,2 hPa 0,0 mm 9,4 km/h (2 Bft) W 272 0 min 0,000 mm 0,0 UV-I 55 W/m 7,0 C 12,8 C 20,9 km/h (4 Bft) 100,00 %
24.04.2018 19:25 12,8 C 68 % 1010,3 hPa 0,0 mm 9,2 km/h (2 Bft) N-NW 332 0 min 0,000 mm 0,0 UV-I 71 W/m 7,0 C 12,8 C 25,7 km/h (4 Bft) 98,37 %
24.04.2018 19:20 12,9 C 68 % 1010,3 hPa 0,0 mm 8,5 km/h (2 Bft) NW 313 0 min 0,000 mm 0,0 UV-I 64 W/m 7,1 C 12,9 C 20,9 km/h (4 Bft) 100,00 %
24.04.2018 19:15 13,0 C 67 % 1010,2 hPa 0,0 mm 8,4 km/h (2 Bft) W 281 0 min 0,000 mm 0,0 UV-I 59 W/m 7,0 C 13,0 C 24,1 km/h (4 Bft) 100,00 %
24.04.2018 19:10 13,1 C 67 % 1010,3 hPa 0,0 mm 7,2 km/h (2 Bft) W 281 0 min 0,000 mm 0,0 UV-I 45 W/m 7,1 C 13,1 C 17,7 km/h (3 Bft) 99,17 %
24.04.2018 19:05 13,2 C 67 % 1010,3 hPa 0,0 mm 5,0 km/h (1 Bft) W-NW 287 0 min 0,000 mm 0,0 UV-I 50 W/m 7,2 C 13,2 C 20,9 km/h (4 Bft) 97,50 %
24.04.2018 19:00 13,2 C 67 % 1010,2 hPa 0,0 mm 1,3 km/h (1 Bft) W 265 0 min 0,076 mm 0,0 UV-I 75 W/m 7,2 C 13,2 C 11,3 km/h (2 Bft) 97,46 %
24.04.2018 18:55 13,2 C 67 % 1010,2 hPa 0,0 mm 1,7 km/h (1 Bft) W-SW 258 0 min 0,000 mm 0,0 UV-I 83 W/m 7,2 C 13,2 C 8,0 km/h (2 Bft) 96,23 %
24.04.2018 18:50 13,2 C 66 % 1010,3 hPa 0,0 mm 3,8 km/h (1 Bft) W-SW 252 0 min 0,000 mm 0,0 UV-I 86 W/m 7,0 C 13,2 C 14,5 km/h (3 Bft) 98,32 %
24.04.2018 18:45 13,2 C 66 % 1010,4 hPa 0,0 mm 3,8 km/h (1 Bft) W-SW 256 0 min 0,000 mm 0,0 UV-I 62 W/m 7,0 C 13,2 C 17,7 km/h (3 Bft) 98,32 %
24.04.2018 18:40 13,3 C 66 % 1010,5 hPa 0,0 mm 2,0 km/h (1 Bft) W-NW 285 0 min 0,000 mm 0,0 UV-I 68 W/m 7,1 C 13,3 C 11,3 km/h (2 Bft) 100,00 %
24.04.2018 18:35 13,3 C 66 % 1010,4 hPa 0,0 mm 2,6 km/h (1 Bft) W-SW 248 0 min 0,000 mm 0,0 UV-I 79 W/m 7,1 C 13,3 C 14,5 km/h (3 Bft) 100,00 %
24.04.2018 18:30 13,3 C 65 % 1010,4 hPa 0,0 mm 5,9 km/h (2 Bft) W-SW 257 0 min 0,000 mm 0,0 UV-I 70 W/m 6,9 C 13,3 C 17,7 km/h (3 Bft) 99,16 %
24.04.2018 18:25 13,3 C 65 % 1010,4 hPa 0,0 mm 7,2 km/h (2 Bft) SW 219 0 min 0,000 mm 0,0 UV-I 77 W/m 6,9 C 13,3 C 19,3 km/h (3 Bft) 100,00 %
24.04.2018 18:20 13,3 C 65 % 1010,4 hPa 0,0 mm 3,9 km/h (1 Bft) W 260 0 min 0,000 mm 0,0 UV-I 81 W/m 6,9 C 13,3 C 16,1 km/h (3 Bft) 100,00 %
24.04.2018 18:15 13,3 C 64 % 1010,5 hPa 0,0 mm 6,3 km/h (2 Bft) W-NW 291 0 min 0,000 mm 0,2 UV-I 99 W/m 6,6 C 13,3 C 17,7 km/h (3 Bft) 99,16 %
24.04.2018 18:10 13,5 C 64 % 1010,6 hPa 0,0 mm 10,1 km/h (2 Bft) W 269 5 min 0,000 mm 0,6 UV-I 241 W/m 6,8 C 13,5 C 24,1 km/h (4 Bft) 100,00 %
24.04.2018 18:05 13,7 C 63 % 1010,7 hPa 0,0 mm 12,3 km/h (3 Bft) W 276 5 min 0,000 mm 0,7 UV-I 374 W/m 6,8 C 13,7 C 24,1 km/h (4 Bft) 97,52 %
24.04.2018 18:00 13,7 C 64 % 1010,6 hPa 0,0 mm 8,5 km/h (2 Bft) W-NW 301 5 min 0,127 mm 0,9 UV-I 386 W/m 7,0 C 13,7 C 22,5 km/h (4 Bft) 96,61 %
24.04.2018 17:55 13,6 C 65 % 1010,7 hPa 0,0 mm 7,0 km/h (2 Bft) W-SW 258 5 min 0,000 mm 0,8 UV-I 349 W/m 7,1 C 13,6 C 19,3 km/h (3 Bft) 97,30 %
24.04.2018 17:50 13,5 C 64 % 1010,7 hPa 0,0 mm 9,5 km/h (2 Bft) W-SW 255 5 min 0,000 mm 0,7 UV-I 375 W/m 6,8 C 13,5 C 27,4 km/h (4 Bft) 99,16 %
24.04.2018 17:45 13,3 C 62 % 1010,7 hPa 0,0 mm 6,9 km/h (2 Bft) W-NW 285 0 min 0,000 mm 0,0 UV-I 159 W/m 6,2 C 13,3 C 20,9 km/h (4 Bft) 98,35 %
24.04.2018 17:40 13,3 C 62 % 1010,7 hPa 0,0 mm 7,0 km/h (2 Bft) SW 233 0 min 0,000 mm 0,0 UV-I 127 W/m 6,2 C 13,3 C 17,7 km/h (3 Bft) 99,15 %
24.04.2018 17:35 13,3 C 61 % 1010,7 hPa 0,0 mm 4,6 km/h (1 Bft) W 273 0 min 0,000 mm 0,0 UV-I 95 W/m 5,9 C 13,3 C 14,5 km/h (3 Bft) 100,00 %
24.04.2018 17:30 13,3 C 61 % 1010,6 hPa 0,0 mm 8,2 km/h (2 Bft) W 267 0 min 0,000 mm 0,0 UV-I 118 W/m 5,9 C 13,3 C 20,9 km/h (4 Bft) 99,15 %
24.04.2018 17:25 13,3 C 61 % 1010,6 hPa 0,0 mm 6,9 km/h (2 Bft) W-SW 254 0 min 0,000 mm 0,2 UV-I 124 W/m 5,9 C 13,3 C 24,1 km/h (4 Bft) 99,15 %
24.04.2018 17:20 13,3 C 60 % 1010,5 hPa 0,0 mm 8,2 km/h (2 Bft) W-NW 285 0 min 0,000 mm 0,4 UV-I 143 W/m 5,7 C 13,3 C 22,5 km/h (4 Bft) 99,15 %
24.04.2018 17:15 13,3 C 61 % 1010,5 hPa 0,0 mm 8,8 km/h (2 Bft) W-NW 298 0 min 0,000 mm 0,6 UV-I 155 W/m 5,9 C 13,3 C 20,9 km/h (4 Bft) 100,00 %
24.04.2018 17:10 13,3 C 60 % 1010,5 hPa 0,0 mm 9,6 km/h (2 Bft) W-SW 254 0 min 0,000 mm 0,7 UV-I 173 W/m 5,7 C 13,3 C 25,7 km/h (4 Bft) 100,00 %
24.04.2018 17:05 13,3 C 61 % 1010,6 hPa 0,0 mm 7,1 km/h (2 Bft) W-NW 288 0 min 0,000 mm 0,6 UV-I 158 W/m 5,9 C 13,3 C 22,5 km/h (4 Bft) 99,07 %
24.04.2018 17:00 13,2 C 60 % 1010,6 hPa 0,0 mm 8,7 km/h (2 Bft) W 267 0 min 0,076 mm 0,3 UV-I 126 W/m 5,6 C 13,2 C 20,9 km/h (4 Bft) 97,50 %
24.04.2018 16:55 13,3 C 60 % 1010,7 hPa 0,0 mm 9,6 km/h (2 Bft) W-NW 290 0 min 0,000 mm 0,1 UV-I 108 W/m 5,7 C 13,3 C 19,3 km/h (3 Bft) 96,69 %
24.04.2018 16:50 13,3 C 59 % 1010,7 hPa 0,0 mm 9,8 km/h (2 Bft) W-NW 285 0 min 0,000 mm 0,0 UV-I 101 W/m 5,5 C 13,3 C 24,1 km/h (4 Bft) 97,25 %
24.04.2018 16:45 13,3 C 59 % 1010,7 hPa 0,0 mm 8,6 km/h (2 Bft) W 267 0 min 0,000 mm 0,2 UV-I 104 W/m 5,5 C 13,3 C 20,9 km/h (4 Bft) 99,17 %
24.04.2018 16:40 13,3 C 58 % 1010,7 hPa 0,0 mm 10,0 km/h (2 Bft) W 277 0 min 0,000 mm 0,5 UV-I 121 W/m 5,2 C 13,3 C 19,3 km/h (3 Bft) 98,31 %
24.04.2018 16:35 13,4 C 59 % 1010,7 hPa 0,0 mm 6,9 km/h (2 Bft) W 263 0 min 0,000 mm 0,0 UV-I 91 W/m 5,6 C 13,4 C 27,4 km/h (4 Bft) 100,00 %
24.04.2018 16:30 13,4 C 59 % 1010,6 hPa 0,0 mm 10,6 km/h (2 Bft) W 261 0 min 0,000 mm 0,0 UV-I 90 W/m 5,6 C 13,4 C 25,7 km/h (4 Bft) 97,46 %
24.04.2018 16:25 13,5 C 60 % 1010,7 hPa 0,0 mm 12,6 km/h (3 Bft) W-SW 244 0 min 0,000 mm 0,0 UV-I 89 W/m 5,9 C 13,5 C 29,0 km/h (5 Bft) 100,00 %
24.04.2018 16:20 13,6 C 63 % 1010,6 hPa 0,0 mm 3,7 km/h (1 Bft) W-NW 285 0 min 0,000 mm 0,0 UV-I 85 W/m 6,7 C 13,6 C 16,1 km/h (3 Bft) 100,00 %
24.04.2018 16:15 13,6 C 64 % 1010,5 hPa 0,0 mm 5,1 km/h (1 Bft) W-NW 289 0 min 0,000 mm 0,0 UV-I 79 W/m 6,9 C 13,6 C 17,7 km/h (3 Bft) 100,00 %
24.04.2018 16:10 13,7 C 65 % 1010,5 hPa 0,0 mm 7,0 km/h (2 Bft) NW 304 0 min 0,000 mm 0,0 UV-I 56 W/m 7,2 C 13,7 C 14,5 km/h (3 Bft) 100,00 %
24.04.2018 16:05 13,7 C 66 % 1010,5 hPa 0,0 mm 4,8 km/h (1 Bft) W 270 0 min 0,000 mm 0,0 UV-I 47 W/m 7,5 C 13,7 C 14,5 km/h (3 Bft) 100,00 %
24.04.2018 16:00 13,7 C 67 % 1010,3 hPa 0,0 mm 0,0 km/h (0 Bft) W-NW 287 0 min 0,203 mm 0,0 UV-I 76 W/m 7,7 C 13,7 C 0,0 km/h (0 Bft) 97,48 %
24.04.2018 15:55 13,7 C 66 % 1010,3 hPa 0,0 mm 3,7 km/h (1 Bft) W 260 0 min 0,000 mm 0,6 UV-I 132 W/m 7,5 C 13,7 C 12,9 km/h (3 Bft) 97,58 %
24.04.2018 15:50 13,8 C 65 % 1010,4 hPa 0,0 mm 7,6 km/h (2 Bft) W 269 0 min 0,000 mm 0,6 UV-I 137 W/m 7,3 C 13,8 C 19,3 km/h (3 Bft) 98,32 %
24.04.2018 15:45 13,9 C 66 % 1010,3 hPa 0,0 mm 4,4 km/h (1 Bft) W 271 0 min 0,000 mm 0,7 UV-I 140 W/m 7,7 C 13,9 C 20,9 km/h (4 Bft) 97,44 %
24.04.2018 15:40 14,2 C 67 % 1010,4 hPa 0,0 mm 3,6 km/h (1 Bft) W 266 0 min 0,000 mm 0,9 UV-I 187 W/m 8,2 C 14,2 C 12,9 km/h (3 Bft) 99,07 %
24.04.2018 15:35 14,3 C 65 % 1010,4 hPa 0,0 mm 6,2 km/h (2 Bft) W-SW 244 5 min 0,000 mm 1,7 UV-I 344 W/m 7,8 C 14,3 C 19,3 km/h (3 Bft) 100,00 %
24.04.2018 15:30 14,4 C 65 % 1010,5 hPa 0,0 mm 8,7 km/h (2 Bft) W 265 5 min 0,000 mm 2,1 UV-I 410 W/m 7,9 C 14,4 C 22,5 km/h (4 Bft) 100,00 %
24.04.2018 15:25 14,3 C 65 % 1010,5 hPa 0,0 mm 7,8 km/h (2 Bft) W 269 5 min 0,000 mm 2,1 UV-I 399 W/m 7,8 C 14,3 C 20,9 km/h (4 Bft) 100,00 %
24.04.2018 15:20 14,6 C 65 % 1010,6 hPa 0,0 mm 7,3 km/h (2 Bft) SW 228 5 min 0,000 mm 2,3 UV-I 472 W/m 8,1 C 14,6 C 27,4 km/h (4 Bft) 100,00 %
24.04.2018 15:15 14,9 C 69 % 1010,7 hPa 0,0 mm 6,8 km/h (2 Bft) SW 234 5 min 0,000 mm 3,0 UV-I 648 W/m 9,3 C 14,9 C 19,3 km/h (3 Bft) 100,00 %
24.04.2018 15:10 14,7 C 68 % 1010,8 hPa 0,0 mm 7,9 km/h (2 Bft) W-SW 248 5 min 0,000 mm 3,4 UV-I 745 W/m 8,9 C 14,7 C 25,7 km/h (4 Bft) 99,15 %
24.04.2018 15:05 13,9 C 71 % 1010,9 hPa 0,0 mm 6,1 km/h (2 Bft) W-NW 286 5 min 0,000 mm 2,7 UV-I 431 W/m 8,7 C 13,9 C 16,1 km/h (3 Bft) 100,00 %
24.04.2018 15:00 13,6 C 74 % 1010,8 hPa 0,0 mm 5,6 km/h (1 Bft) NW 319 0 min 0,127 mm 2,2 UV-I 358 W/m 9,1 C 13,6 C 14,5 km/h (3 Bft) 99,15 %
24.04.2018 14:55 13,2 C 77 % 1010,8 hPa 0,0 mm 4,4 km/h (1 Bft) S-SO 163 0 min 0,000 mm 1,8 UV-I 309 W/m 9,3 C 13,2 C 9,7 km/h (2 Bft) 96,67 %
24.04.2018 14:50 13,0 C 78 % 1010,9 hPa 0,0 mm 2,6 km/h (1 Bft) W-SW 244 0 min 0,000 mm 1,4 UV-I 254 W/m 9,3 C 13,0 C 12,9 km/h (3 Bft) 97,44 %
24.04.2018 14:45 12,9 C 80 % 1010,9 hPa 0,0 mm 3,5 km/h (1 Bft) SW 225 0 min 0,000 mm 1,4 UV-I 241 W/m 9,5 C 12,9 C 9,7 km/h (2 Bft) 97,48 %
24.04.2018 14:40 12,7 C 81 % 1011,0 hPa 0,0 mm 3,9 km/h (1 Bft) W 269 0 min 0,000 mm 1,5 UV-I 250 W/m 9,5 C 12,7 C 12,9 km/h (3 Bft) 98,31 %
24.04.2018 14:35 12,3 C 82 % 1010,8 hPa 0,0 mm 1,3 km/h (1 Bft) W-SW 258 0 min 0,000 mm 1,0 UV-I 163 W/m 9,3 C 12,3 C 9,7 km/h (2 Bft) 98,32 %
24.04.2018 14:30 12,2 C 82 % 1010,9 hPa 0,0 mm 0,5 km/h (0 Bft) W 277 0 min 0,000 mm 0,8 UV-I 155 W/m 9,2 C 12,2 C 6,4 km/h (2 Bft) 100,00 %
24.04.2018 14:25 12,2 C 82 % 1010,9 hPa 0,0 mm 0,2 km/h (0 Bft) W 270 0 min 0,000 mm 0,7 UV-I 117 W/m 9,2 C 12,2 C 6,4 km/h (2 Bft) 100,00 %
24.04.2018 14:20 12,1 C 83 % 1010,9 hPa 0,0 mm 0,3 km/h (0 Bft) W-NW 284 0 min 0,000 mm 1,3 UV-I 217 W/m 9,3 C 12,1 C 17,7 km/h (3 Bft) 100,00 %
24.04.2018 14:15 12,0 C 83 % 1010,8 hPa 0,0 mm 0,1 km/h (0 Bft) W-NW 303 0 min 0,000 mm 1,4 UV-I 221 W/m 9,2 C 12,0 C 3,2 km/h (1 Bft) 100,00 %
24.04.2018 14:10 11,8 C 85 % 1010,9 hPa 0,0 mm 1,3 km/h (1 Bft) W 265 0 min 0,000 mm 1,3 UV-I 222 W/m 9,4 C 11,8 C 19,3 km/h (3 Bft) 99,17 %
24.04.2018 14:05 11,7 C 85 % 1010,7 hPa 0,0 mm 0,0 km/h (0 Bft) W-NW 290 0 min 0,000 mm 1,6 UV-I 260 W/m 9,3 C 11,7 C 0,0 km/h (0 Bft) 98,23 %
24.04.2018 14:00 11,7 C 85 % 1010,8 hPa 0,0 mm 0,0 km/h (0 Bft) W-SW 238 0 min 0,051 mm 1,0 UV-I 184 W/m 9,3 C 11,7 C 0,0 km/h (0 Bft) 100,00 %
24.04.2018 13:55 11,6 C 85 % 1010,9 hPa 0,0 mm 0,0 km/h (0 Bft) W-SW 258 0 min 0,000 mm 0,9 UV-I 150 W/m 9,2 C 11,6 C 0,0 km/h (0 Bft) 97,46 %
24.04.2018 13:50 11,6 C 85 % 1010,9 hPa 0,0 mm 0,0 km/h (0 Bft) W-NW 287 0 min 0,000 mm 0,9 UV-I 151 W/m 9,2 C 11,6 C 0,0 km/h (0 Bft) 97,48 %
24.04.2018 13:45 11,6 C 85 % 1010,9 hPa 0,0 mm 0,0 km/h (0 Bft) W 273 0 min 0,000 mm 0,9 UV-I 152 W/m 9,2 C 11,6 C 0,0 km/h (0 Bft) 95,50 %
24.04.2018 13:40 11,6 C 85 % 1011,0 hPa 0,0 mm 0,0 km/h (0 Bft) W 262 0 min 0,000 mm 0,1 UV-I 74 W/m 9,2 C 11,6 C 0,0 km/h (0 Bft) 98,32 %
24.04.2018 13:35 11,7 C 85 % 1010,9 hPa 0,0 mm 0,0 km/h (0 Bft) W 259 0 min 0,000 mm 0,0 UV-I 71 W/m 9,3 C 11,7 C 0,0 km/h (0 Bft) 99,15 %
24.04.2018 13:30 11,7 C 85 % 1010,9 hPa 0,0 mm 0,0 km/h (0 Bft) W-SW 246 0 min 0,000 mm 0,0 UV-I 59 W/m 9,3 C 11,7 C 0,0 km/h (0 Bft) 100,00 %
24.04.2018 13:25 11,8 C 84 % 1010,9 hPa 0,0 mm 0,0 km/h (0 Bft) W-SW 257 0 min 0,000 mm 0,0 UV-I 39 W/m 9,2 C 11,8 C 0,0 km/h (0 Bft) 98,35 %
24.04.2018 13:20 11,8 C 84 % 1010,8 hPa 0,0 mm 0,0 km/h (0 Bft) W-SW 245 0 min 0,000 mm 0,0 UV-I 24 W/m 9,2 C 11,8 C 0,0 km/h (0 Bft) 98,32 %
24.04.2018 13:15 11,9 C 83 % 1010,5 hPa 0,0 mm 0,0 km/h (0 Bft) W-SW 252 0 min 0,000 mm 0,0 UV-I 29 W/m 9,1 C 11,9 C 0,0 km/h (0 Bft) 100,00 %
24.04.2018 13:10 11,9 C 83 % 1010,6 hPa 0,0 mm 0,0 km/h (0 Bft) W 274 0 min 0,000 mm 0,0 UV-I 37 W/m 9,1 C 11,9 C 0,0 km/h (0 Bft) 100,00 %
24.04.2018 13:05 12,0 C 83 % 1010,4 hPa 0,0 mm 0,0 km/h (0 Bft) W 273 0 min 0,000 mm 0,0 UV-I 33 W/m 9,2 C 12,0 C 0,0 km/h (0 Bft) 100,00 %
24.04.2018 13:00 12,0 C 82 % 1010,3 hPa 0,0 mm 0,0 km/h (0 Bft) W-SW 254 0 min 0,051 mm 0,0 UV-I 41 W/m 9,0 C 12,0 C 0,0 km/h (0 Bft) 99,15 %
24.04.2018 12:55 12,0 C 82 % 1010,1 hPa 0,0 mm 0,0 km/h (0 Bft) W 269 0 min 0,000 mm 0,0 UV-I 58 W/m 9,0 C 12,0 C 0,0 km/h (0 Bft) 99,17 %
24.04.2018 12:50 11,9 C 82 % 1010,2 hPa 0,0 mm 0,0 km/h (0 Bft) S-SW 207 0 min 0,000 mm 0,0 UV-I 57 W/m 8,9 C 11,9 C 0,0 km/h (0 Bft) 97,44 %
24.04.2018 12:45 11,9 C 82 % 1010,3 hPa 0,0 mm 0,0 km/h (0 Bft) NW 306 0 min 0,000 mm 0,4 UV-I 92 W/m 8,9 C 11,9 C 0,0 km/h (0 Bft) 98,32 %
24.04.2018 12:40 11,9 C 82 % 1010,5 hPa 0,0 mm 0,0 km/h (0 Bft) W-SW 247 0 min 0,000 mm 0,1 UV-I 73 W/m 8,9 C 11,9 C 0,0 km/h (0 Bft) 96,61 %
24.04.2018 12:35 11,9 C 81 % 1010,5 hPa 0,0 mm 0,0 km/h (0 Bft) W-NW 287 0 min 0,000 mm 0,2 UV-I 78 W/m 8,7 C 11,9 C 0,0 km/h (0 Bft) 99,10 %
24.04.2018 12:30 11,9 C 82 % 1010,5 hPa 0,0 mm 0,0 km/h (0 Bft) W-SW 255 0 min 0,000 mm 0,4 UV-I 93 W/m 8,9 C 11,9 C 0,0 km/h (0 Bft) 99,15 %
24.04.2018 12:25 11,9 C 82 % 1010,3 hPa 0,0 mm 0,0 km/h (0 Bft) SW 227 0 min 0,000 mm 0,8 UV-I 138 W/m 8,9 C 11,9 C 0,0 km/h (0 Bft) 99,18 %
24.04.2018 12:20 11,9 C 83 % 1010,2 hPa 0,0 mm 0,0 km/h (0 Bft) W 279 0 min 0,000 mm 0,9 UV-I 156 W/m 9,1 C 11,9 C 0,0 km/h (0 Bft) 99,15 %
24.04.2018 12:15 11,8 C 82 % 1010,4 hPa 0,0 mm 0,0 km/h (0 Bft) W 273 0 min 0,000 mm 0,1 UV-I 67 W/m 8,8 C 11,8 C 0,0 km/h (0 Bft) 99,15 %
24.04.2018 12:10 11,8 C 82 % 1010,4 hPa 0,0 mm 0,0 km/h (0 Bft) SW 234 0 min 0,000 mm 0,2 UV-I 83 W/m 8,8 C 11,8 C 0,0 km/h (0 Bft) 100,00 %
24.04.2018 12:05 11,8 C 82 % 1010,4 hPa 0,0 mm 0,0 km/h (0 Bft) W-SW 250 0 min 0,000 mm 0,5 UV-I 101 W/m 8,8 C 11,8 C 0,0 km/h (0 Bft) 100,00 %
24.04.2018 12:00 11,8 C 81 % 1010,5 hPa 0,0 mm 0,0 km/h (0 Bft) W-NW 284 0 min 0,051 mm 0,4 UV-I 98 W/m 8,6 C 11,8 C 0,0 km/h (0 Bft) 99,19 %
24.04.2018 11:55 11,9 C 81 % 1010,4 hPa 0,0 mm 0,0 km/h (0 Bft) W-NW 293 0 min 0,000 mm 0,2 UV-I 77 W/m 8,7 C 11,9 C 0,0 km/h (0 Bft) 100,00 %
24.04.2018 11:50 11,9 C 82 % 1010,4 hPa 0,0 mm 0,0 km/h (0 Bft) W-SW 249 0 min 0,000 mm 0,6 UV-I 93 W/m 8,9 C 11,9 C 0,0 km/h (0 Bft) 97,52 %
24.04.2018 11:45 11,9 C 81 % 1010,4 hPa 0,0 mm 0,0 km/h (0 Bft) W 262 0 min 0,000 mm 0,1 UV-I 76 W/m 8,7 C 11,9 C 0,0 km/h (0 Bft) 97,37 %
24.04.2018 11:40 12,0 C 81 % 1010,4 hPa 0,0 mm 0,0 km/h (0 Bft) W 260 0 min 0,000 mm 0,2 UV-I 78 W/m 8,8 C 12,0 C 0,0 km/h (0 Bft) 97,46 %
24.04.2018 11:35 12,1 C 81 % 1010,4 hPa 0,0 mm 0,0 km/h (0 Bft) SW 234 0 min 0,000 mm 0,4 UV-I 103 W/m 8,9 C 12,1 C 0,0 km/h (0 Bft) 97,48 %
24.04.2018 11:30 12,1 C 81 % 1010,3 hPa 0,0 mm 0,0 km/h (0 Bft) W 262 0 min 0,000 mm 0,0 UV-I 69 W/m 8,9 C 12,1 C 0,0 km/h (0 Bft) 100,00 %
24.04.2018 11:25 12,1 C 80 % 1010,2 hPa 0,0 mm 0,0 km/h (0 Bft) SW 232 0 min 0,000 mm 0,0 UV-I 49 W/m 8,8 C 12,1 C 0,0 km/h (0 Bft) 99,15 %
24.04.2018 11:20 12,1 C 80 % 1010,2 hPa 0,0 mm 0,0 km/h (0 Bft) SW 236 0 min 0,000 mm 0,0 UV-I 47 W/m 8,8 C 12,1 C 0,0 km/h (0 Bft) 100,00 %
24.04.2018 11:15 12,2 C 79 % 1010,1 hPa 0,0 mm 0,0 km/h (0 Bft) W-SW 250 0 min 0,000 mm 0,0 UV-I 52 W/m 8,7 C 12,2 C 0,0 km/h (0 Bft) 100,00 %
24.04.2018 11:10 12,2 C 79 % 1010,0 hPa 0,0 mm 0,0 km/h (0 Bft) W-SW 240 0 min 0,000 mm 0,4 UV-I 101 W/m 8,7 C 12,2 C 0,0 km/h (0 Bft) 100,00 %
24.04.2018 11:05 12,2 C 79 % 1010,1 hPa 0,0 mm 0,0 km/h (0 Bft) W-SW 247 0 min 0,000 mm 0,0 UV-I 72 W/m 8,7 C 12,2 C 0,0 km/h (0 Bft) 100,00 %
24.04.2018 11:00 12,2 C 79 % 1010,0 hPa 0,0 mm 0,0 km/h (0 Bft) W 276 0 min 0,076 mm 0,0 UV-I 67 W/m 8,7 C 12,2 C 0,0 km/h (0 Bft) 99,17 %
24.04.2018 10:55 12,2 C 79 % 1009,9 hPa 0,0 mm 0,0 km/h (0 Bft) W-SW 238 0 min 0,000 mm 0,0 UV-I 76 W/m 8,7 C 12,2 C 0,0 km/h (0 Bft) 100,00 %
24.04.2018 10:50 12,2 C 80 % 1009,9 hPa 0,0 mm 0,0 km/h (0 Bft) SW 228 0 min 0,000 mm 0,2 UV-I 96 W/m 8,9 C 12,2 C 0,0 km/h (0 Bft) 100,00 %
24.04.2018 10:45 12,3 C 79 % 1009,9 hPa 0,0 mm 0,0 km/h (0 Bft) W-SW 244 0 min 0,000 mm 0,6 UV-I 119 W/m 8,8 C 12,3 C 0,0 km/h (0 Bft) 97,46 %
24.04.2018 10:40 12,3 C 78 % 1010,0 hPa 0,0 mm 0,0 km/h (0 Bft) W-SW 258 0 min 0,000 mm 0,8 UV-I 166 W/m 8,6 C 12,3 C 0,0 km/h (0 Bft) 95,73 %
24.04.2018 10:35 12,4 C 79 % 1010,0 hPa 0,0 mm 0,0 km/h (0 Bft) W 274 0 min 0,000 mm 0,8 UV-I 190 W/m 8,9 C 12,4 C 0,0 km/h (0 Bft) 97,46 %
24.04.2018 10:30 12,3 C 80 % 1010,0 hPa 0,0 mm 0,0 km/h (0 Bft) SW 231 0 min 0,000 mm 1,5 UV-I 308 W/m 8,9 C 12,3 C 0,0 km/h (0 Bft) 99,07 %
24.04.2018 10:25 12,0 C 80 % 1010,0 hPa 0,0 mm 0,0 km/h (0 Bft) W-SW 238 0 min 0,000 mm 0,9 UV-I 174 W/m 8,7 C 12,0 C 0,0 km/h (0 Bft) 99,16 %
24.04.2018 10:20 12,0 C 79 % 1010,0 hPa 0,0 mm 0,0 km/h (0 Bft) SW 228 0 min 0,000 mm 0,0 UV-I 91 W/m 8,5 C 12,0 C 0,0 km/h (0 Bft) 100,00 %
24.04.2018 10:15 12,0 C 79 % 1010,1 hPa 0,0 mm 0,0 km/h (0 Bft) W 264 0 min 0,000 mm 0,1 UV-I 99 W/m 8,5 C 12,0 C 0,0 km/h (0 Bft) 100,00 %
24.04.2018 10:10 11,9 C 79 % 1010,0 hPa 0,0 mm 0,0 km/h (0 Bft) W-SW 237 0 min 0,000 mm 0,3 UV-I 92 W/m 8,4 C 11,9 C 0,0 km/h (0 Bft) 99,15 %
24.04.2018 10:05 11,9 C 79 % 1009,8 hPa 0,0 mm 0,0 km/h (0 Bft) W-SW 256 0 min 0,000 mm 0,0 UV-I 70 W/m 8,4 C 11,9 C 0,0 km/h (0 Bft) 98,36 %
24.04.2018 10:00 11,9 C 79 % 1009,8 hPa 0,0 mm 0,0 km/h (0 Bft) W-SW 240 0 min 0,076 mm 0,0 UV-I 92 W/m 8,4 C 11,9 C 0,0 km/h (0 Bft) 100,00 %
24.04.2018 09:55 11,9 C 79 % 1009,9 hPa 0,0 mm 0,0 km/h (0 Bft) W-SW 249 0 min 0,000 mm 0,2 UV-I 95 W/m 8,4 C 11,9 C 0,0 km/h (0 Bft) 98,13 %
24.04.2018 09:50 11,9 C 80 % 1009,8 hPa 0,0 mm 0,0 km/h (0 Bft) SW 232 0 min 0,000 mm 0,1 UV-I 91 W/m 8,6 C 11,9 C 0,0 km/h (0 Bft) 99,16 %
24.04.2018 09:45 11,9 C 80 % 1009,9 hPa 0,0 mm 0,0 km/h (0 Bft) SW 226 0 min 0,000 mm 0,3 UV-I 117 W/m 8,6 C 11,9 C 0,0 km/h (0 Bft) 97,48 %
24.04.2018 09:40 11,8 C 80 % 1009,9 hPa 0,0 mm 0,0 km/h (0 Bft) W 263 0 min 0,000 mm 0,4 UV-I 136 W/m 8,5 C 11,8 C 0,0 km/h (0 Bft) 98,33 %
24.04.2018 09:35 11,8 C 80 % 1009,8 hPa 0,0 mm 0,0 km/h (0 Bft) W 268 0 min 0,000 mm 0,6 UV-I 151 W/m 8,5 C 11,8 C 0,0 km/h (0 Bft) 96,64 %
24.04.2018 09:30 11,7 C 81 % 1009,8 hPa 0,0 mm 0,0 km/h (0 Bft) W-SW 252 0 min 0,000 mm 0,6 UV-I 159 W/m 8,5 C 11,7 C 0,0 km/h (0 Bft) 97,46 %
24.04.2018 09:25 11,6 C 81 % 1010,1 hPa 0,0 mm 0,0 km/h (0 Bft) SW 229 0 min 0,000 mm 0,4 UV-I 146 W/m 8,5 C 11,6 C 0,0 km/h (0 Bft) 99,08 %
24.04.2018 09:20 11,4 C 81 % 1010,1 hPa 0,0 mm 0,0 km/h (0 Bft) W-SW 240 0 min 0,000 mm 0,6 UV-I 164 W/m 8,3 C 11,4 C 0,0 km/h (0 Bft) 98,31 %
24.04.2018 09:15 11,3 C 81 % 1010,0 hPa 0,0 mm 0,0 km/h (0 Bft) W 274 0 min 0,000 mm 0,3 UV-I 123 W/m 8,2 C 11,3 C 0,0 km/h (0 Bft) 100,00 %
24.04.2018 09:10 11,2 C 81 % 1010,0 hPa 0,0 mm 0,0 km/h (0 Bft) W-SW 243 0 min 0,000 mm 0,3 UV-I 140 W/m 8,1 C 11,2 C 0,0 km/h (0 Bft) 100,00 %
24.04.2018 09:05 11,1 C 81 % 1010,0 hPa 0,0 mm 0,0 km/h (0 Bft) W 279 0 min 0,000 mm 0,3 UV-I 144 W/m 8,0 C 11,1 C 0,0 km/h (0 Bft) 99,16 %
24.04.2018 09:00 11,1 C 81 % 1009,8 hPa 0,0 mm 0,0 km/h (0 Bft) W-SW 248 0 min 0,026 mm 0,0 UV-I 117 W/m 8,0 C 11,1 C 0,0 km/h (0 Bft) 100,00 %
24.04.2018 08:55 11,0 C 81 % 1009,9 hPa 0,0 mm 0,0 km/h (0 Bft) W 267 0 min 0,000 mm 0,0 UV-I 70 W/m 7,9 C 11,0 C 0,0 km/h (0 Bft) 100,00 %
24.04.2018 08:50 10,9 C 80 % 1010,2 hPa 0,0 mm 0,0 km/h (0 Bft) S-SW 194 0 min 0,000 mm 0,0 UV-I 56 W/m 7,6 C 10,9 C 0,0 km/h (0 Bft) 100,00 %
24.04.2018 08:45 10,9 C 80 % 1010,0 hPa 0,0 mm 0,0 km/h (0 Bft) S 170 0 min 0,000 mm 0,0 UV-I 40 W/m 7,6 C 10,9 C 0,0 km/h (0 Bft) 99,15 %
24.04.2018 08:40 10,9 C 80 % 1010,0 hPa 0,0 mm 0,0 km/h (0 Bft) S 169 0 min 0,000 mm 0,0 UV-I 64 W/m 7,6 C 10,9 C 0,0 km/h (0 Bft) 97,46 %
24.04.2018 08:35 10,8 C 81 % 1009,9 hPa 0,0 mm 0,0 km/h (0 Bft) S-SW 208 0 min 0,000 mm 0,0 UV-I 91 W/m 7,7 C 10,8 C 0,0 km/h (0 Bft) 97,44 %
24.04.2018 08:30 10,8 C 80 % 1009,9 hPa 0,0 mm 0,0 km/h (0 Bft) S-SW 205 0 min 0,000 mm 0,0 UV-I 68 W/m 7,5 C 10,8 C 0,0 km/h (0 Bft) 98,26 %
24.04.2018 08:25 10,8 C 80 % 1009,9 hPa 0,0 mm 0,0 km/h (0 Bft) SW 221 0 min 0,000 mm 0,0 UV-I 39 W/m 7,5 C 10,8 C 0,0 km/h (0 Bft) 98,35 %
24.04.2018 08:20 10,7 C 80 % 1009,9 hPa 0,0 mm 0,0 km/h (0 Bft) W-SW 246 0 min 0,000 mm 0,0 UV-I 46 W/m 7,4 C 10,7 C 0,0 km/h (0 Bft) 100,00 %
24.04.2018 08:15 10,7 C 81 % 1009,9 hPa 0,0 mm 0,0 km/h (0 Bft) SW 220 0 min 0,000 mm 0,0 UV-I 44 W/m 7,6 C 10,7 C 0,0 km/h (0 Bft) 100,00 %
24.04.2018 08:10 10,6 C 81 % 1009,9 hPa 0,0 mm 0,0 km/h (0 Bft) SW 226 0 min 0,000 mm 0,0 UV-I 102 W/m 7,5 C 10,6 C 0,0 km/h (0 Bft) 99,06 %
24.04.2018 08:05 10,6 C 81 % 1009,8 hPa 0,0 mm 0,0 km/h (0 Bft) SW 227 0 min 0,000 mm 0,0 UV-I 97 W/m 7,5 C 10,6 C 0,0 km/h (0 Bft) 100,00 %
24.04.2018 08:00 10,4 C 81 % 1009,9 hPa 0,0 mm 0,0 km/h (0 Bft) W-SW 237 0 min 0,025 mm 0,0 UV-I 80 W/m 7,3 C 10,4 C 0,0 km/h (0 Bft) 100,00 %
24.04.2018 07:55 10,4 C 81 % 1010,0 hPa 0,0 mm 0,0 km/h (0 Bft) W-SW 251 0 min 0,000 mm 0,0 UV-I 71 W/m 7,3 C 10,4 C 0,0 km/h (0 Bft) 99,17 %
24.04.2018 07:50 10,3 C 81 % 1010,1 hPa 0,0 mm 0,0 km/h (0 Bft) S-SW 202 0 min 0,000 mm 0,0 UV-I 83 W/m 7,2 C 10,3 C 0,0 km/h (0 Bft) 100,00 %
24.04.2018 07:45 10,2 C 81 % 1010,0 hPa 0,0 mm 0,0 km/h (0 Bft) W-SW 237 0 min 0,000 mm 0,0 UV-I 89 W/m 7,1 C 10,2 C 0,0 km/h (0 Bft) 98,35 %
24.04.2018 07:40 10,2 C 82 % 1010,0 hPa 0,0 mm 0,0 km/h (0 Bft) W-SW 238 0 min 0,000 mm 0,0 UV-I 99 W/m 7,3 C 10,2 C 0,0 km/h (0 Bft) 98,29 %
24.04.2018 07:35 10,1 C 82 % 1009,9 hPa 0,0 mm 0,0 km/h (0 Bft) S-SW 196 0 min 0,000 mm 0,0 UV-I 105 W/m 7,2 C 10,1 C 0,0 km/h (0 Bft) 96,72 %
24.04.2018 07:30 9,9 C 82 % 1009,9 hPa 0,0 mm 0,0 km/h (0 Bft) S-SW 192 0 min 0,000 mm 0,0 UV-I 100 W/m 7,0 C 9,9 C 0,0 km/h (0 Bft) 97,35 %
24.04.2018 07:25 9,9 C 82 % 1009,9 hPa 0,0 mm 0,0 km/h (0 Bft) SW 227 0 min 0,000 mm 0,0 UV-I 80 W/m 7,0 C 9,9 C 0,0 km/h (0 Bft) 98,35 %
24.04.2018 07:20 9,8 C 82 % 1010,0 hPa 0,0 mm 0,0 km/h (0 Bft) SW 219 0 min 0,000 mm 0,0 UV-I 59 W/m 6,9 C 9,8 C 0,0 km/h (0 Bft) 100,00 %
24.04.2018 07:15 9,8 C 82 % 1010,0 hPa 0,0 mm 0,0 km/h (0 Bft) S 185 0 min 0,000 mm 0,0 UV-I 42 W/m 6,9 C 9,8 C 0,0 km/h (0 Bft) 99,16 %
24.04.2018 07:10 9,7 C 83 % 1010,0 hPa 0,0 mm 0,0 km/h (0 Bft) SW 230 0 min 0,000 mm 0,0 UV-I 37 W/m 7,0 C 9,7 C 0,0 km/h (0 Bft) 100,00 %
24.04.2018 07:05 9,6 C 83 % 1010,0 hPa 0,0 mm 0,0 km/h (0 Bft) S-SW 198 0 min 0,000 mm 0,0 UV-I 38 W/m 6,9 C 9,6 C 0,0 km/h (0 Bft) 99,17 %
24.04.2018 07:00 9,6 C 84 % 1010,0 hPa 0,0 mm 0,0 km/h (0 Bft) S-SW 213 0 min 0,000 mm 0,0 UV-I 39 W/m 7,0 C 9,6 C 0,0 km/h (0 Bft) 100,00 %
24.04.2018 06:55 9,4 C 84 % 1010,1 hPa 0,0 mm 0,0 km/h (0 Bft) SW 227 0 min 0,000 mm 0,0 UV-I 38 W/m 6,8 C 9,4 C 0,0 km/h (0 Bft) 100,00 %
24.04.2018 06:50 9,4 C 85 % 1010,4 hPa 0,0 mm 0,0 km/h (0 Bft) SW 220 0 min 0,000 mm 0,0 UV-I 35 W/m 7,0 C 9,4 C 0,0 km/h (0 Bft) 100,00 %
24.04.2018 06:45 9,3 C 85 % 1010,3 hPa 0,0 mm 0,0 km/h (0 Bft) S 180 0 min 0,000 mm 0,0 UV-I 27 W/m 6,9 C 9,3 C 0,0 km/h (0 Bft) 100,00 %
24.04.2018 06:40 9,3 C 85 % 1010,5 hPa 0,0 mm 0,0 km/h (0 Bft) S 182 0 min 0,000 mm 0,0 UV-I 17 W/m 6,9 C 9,3 C 0,0 km/h (0 Bft) 98,18 %
24.04.2018 06:35 9,2 C 85 % 1010,4 hPa 0,0 mm 0,0 km/h (0 Bft) S 190 0 min 0,000 mm 0,0 UV-I 14 W/m 6,8 C 9,2 C 0,0 km/h (0 Bft) 98,33 %
24.04.2018 06:30 9,2 C 85 % 1010,4 hPa 0,0 mm 0,0 km/h (0 Bft) SW 229 0 min 0,000 mm 0,0 UV-I 12 W/m 6,8 C 9,2 C 0,0 km/h (0 Bft) 97,46 %
24.04.2018 06:25 9,1 C 85 % 1010,4 hPa 0,0 mm 0,0 km/h (0 Bft) SW 232 0 min 0,000 mm 0,0 UV-I 9 W/m 6,7 C 9,1 C 0,0 km/h (0 Bft) 97,52 %
24.04.2018 06:20 9,1 C 85 % 1010,5 hPa 0,0 mm 0,0 km/h (0 Bft) W-SW 240 0 min 0,000 mm 0,0 UV-I 8 W/m 6,7 C 9,1 C 0,0 km/h (0 Bft) 98,15 %
24.04.2018 06:15 9,1 C 85 % 1010,5 hPa 0,0 mm 0,0 km/h (0 Bft) S-SW 200 0 min 0,000 mm 0,0 UV-I 10 W/m 6,7 C 9,1 C 0,0 km/h (0 Bft) 100,00 %
24.04.2018 06:10 9,1 C 86 % 1010,4 hPa 0,0 mm 0,0 km/h (0 Bft) S-SO 155 0 min 0,000 mm 0,0 UV-I 8 W/m 6,9 C 9,1 C 0,0 km/h (0 Bft) 100,00 %
24.04.2018 06:05 9,0 C 86 % 1010,5 hPa 0,0 mm 0,0 km/h (0 Bft) S 191 0 min 0,000 mm 0,0 UV-I 5 W/m 6,8 C 9,0 C 0,0 km/h (0 Bft) 98,31 %
24.04.2018 06:00 9,0 C 86 % 1010,4 hPa 0,0 mm 0,0 km/h (0 Bft) S 184 0 min 0,000 mm 0,0 UV-I 0 W/m 6,8 C 9,0 C 0,0 km/h (0 Bft) 98,21 %
24.04.2018 05:55 8,9 C 86 % 1010,5 hPa 0,0 mm 0,0 km/h (0 Bft) S-SW 203 0 min 0,000 mm 0,0 UV-I 0 W/m 6,7 C 8,9 C 0,0 km/h (0 Bft) 100,00 %
24.04.2018 05:50 8,9 C 86 % 1010,7 hPa 0,0 mm 0,0 km/h (0 Bft) S-SW 201 0 min 0,000 mm 0,0 UV-I 0 W/m 6,7 C 8,9 C 0,0 km/h (0 Bft) 100,00 %
24.04.2018 05:45 8,9 C 86 % 1010,9 hPa 0,0 mm 0,0 km/h (0 Bft) S-SW 195 0 min 0,000 mm 0,0 UV-I 0 W/m 6,7 C 8,9 C 0,0 km/h (0 Bft) 100,00 %
24.04.2018 05:40 8,9 C 86 % 1010,9 hPa 0,0 mm 0,0 km/h (0 Bft) S-SW 197 0 min 0,000 mm 0,0 UV-I 0 W/m 6,7 C 8,9 C 0,0 km/h (0 Bft) 99,15 %
24.04.2018 05:35 8,9 C 86 % 1010,7 hPa 0,0 mm 0,0 km/h (0 Bft) W-SW 254 0 min 0,000 mm 0,0 UV-I 0 W/m 6,7 C 8,9 C 0,0 km/h (0 Bft) 97,48 %
24.04.2018 05:30 8,9 C 86 % 1010,9 hPa 0,0 mm 0,0 km/h (0 Bft) SW 219 0 min 0,000 mm 0,0 UV-I 0 W/m 6,7 C 8,9 C 0,0 km/h (0 Bft) 97,35 %
24.04.2018 05:25 8,9 C 86 % 1010,8 hPa 0,0 mm 0,0 km/h (0 Bft) S-SW 196 0 min 0,000 mm 0,0 UV-I 0 W/m 6,7 C 8,9 C 0,0 km/h (0 Bft) 98,29 %
24.04.2018 05:20 8,8 C 87 % 1010,8 hPa 0,0 mm 0,0 km/h (0 Bft) S-SW 213 0 min 0,000 mm 0,0 UV-I 0 W/m 6,8 C 8,8 C 0,0 km/h (0 Bft) 97,52 %
24.04.2018 05:15 8,8 C 87 % 1010,8 hPa 0,0 mm 0,0 km/h (0 Bft) S 180 0 min 0,000 mm 0,0 UV-I 0 W/m 6,8 C 8,8 C 0,0 km/h (0 Bft) 100,00 %
24.04.2018 05:10 8,8 C 87 % 1011,3 hPa 0,0 mm 0,0 km/h (0 Bft) SW 217 0 min 0,000 mm 0,0 UV-I 0 W/m 6,8 C 8,8 C 0,0 km/h (0 Bft) 100,00 %
24.04.2018 05:05 8,8 C 87 % 1011,3 hPa 0,0 mm 0,0 km/h (0 Bft) SW 215 0 min 0,000 mm 0,0 UV-I 0 W/m 6,8 C 8,8 C 0,0 km/h (0 Bft) 100,00 %
24.04.2018 05:00 8,7 C 87 % 1011,2 hPa 0,0 mm 0,0 km/h (0 Bft) S-SW 204 0 min 0,000 mm 0,0 UV-I 0 W/m 6,7 C 8,7 C 0,0 km/h (0 Bft) 100,00 %
24.04.2018 04:55 8,7 C 87 % 1011,4 hPa 0,0 mm 0,0 km/h (0 Bft) S-SW 200 0 min 0,000 mm 0,0 UV-I 0 W/m 6,7 C 8,7 C 0,0 km/h (0 Bft) 99,18 %
24.04.2018 04:50 8,6 C 87 % 1011,5 hPa 0,0 mm 0,0 km/h (0 Bft) S-SW 202 0 min 0,000 mm 0,0 UV-I 0 W/m 6,6 C 8,6 C 0,0 km/h (0 Bft) 100,00 %
24.04.2018 04:45 8,6 C 87 % 1011,5 hPa 0,0 mm 0,0 km/h (0 Bft) W-SW 243 0 min 0,000 mm 0,0 UV-I 0 W/m 6,6 C 8,6 C 0,0 km/h (0 Bft) 99,16 %
24.04.2018 04:40 8,5 C 87 % 1011,5 hPa 0,0 mm 0,0 km/h (0 Bft) W-SW 241 0 min 0,000 mm 0,0 UV-I 0 W/m 6,5 C 8,5 C 0,0 km/h (0 Bft) 99,16 %
24.04.2018 04:35 8,5 C 87 % 1011,5 hPa 0,0 mm 0,0 km/h (0 Bft) SW 231 0 min 0,000 mm 0,0 UV-I 0 W/m 6,5 C 8,5 C 0,0 km/h (0 Bft) 97,37 %
24.04.2018 04:30 8,4 C 87 % 1011,4 hPa 0,0 mm 0,0 km/h (0 Bft) W-SW 253 0 min 0,000 mm 0,0 UV-I 0 W/m 6,4 C 8,4 C 0,0 km/h (0 Bft) 96,58 %
24.04.2018 04:25 8,4 C 86 % 1011,5 hPa 0,0 mm 0,0 km/h (0 Bft) W-SW 256 0 min 0,000 mm 0,0 UV-I 0 W/m 6,2 C 8,4 C 0,0 km/h (0 Bft) 97,44 %
24.04.2018 04:20 8,4 C 86 % 1011,4 hPa 0,0 mm 0,0 km/h (0 Bft) S-SW 194 0 min 0,000 mm 0,0 UV-I 0 W/m 6,2 C 8,4 C 0,0 km/h (0 Bft) 99,17 %
24.04.2018 04:15 8,4 C 86 % 1011,1 hPa 0,0 mm 0,0 km/h (0 Bft) S 178 0 min 0,000 mm 0,0 UV-I 0 W/m 6,2 C 8,4 C 0,0 km/h (0 Bft) 99,15 %
24.04.2018 04:10 8,3 C 86 % 1011,2 hPa 0,0 mm 0,0 km/h (0 Bft) S-SW 194 0 min 0,000 mm 0,0 UV-I 0 W/m 6,1 C 8,3 C 0,0 km/h (0 Bft) 100,00 %
24.04.2018 04:05 8,3 C 87 % 1011,4 hPa 0,0 mm 0,0 km/h (0 Bft) S 186 0 min 0,000 mm 0,0 UV-I 0 W/m 6,3 C 8,3 C 0,0 km/h (0 Bft) 98,06 %
24.04.2018 04:00 8,3 C 86 % 1011,5 hPa 0,0 mm 0,0 km/h (0 Bft) S 181 0 min 0,000 mm 0,0 UV-I 0 W/m 6,1 C 8,3 C 0,0 km/h (0 Bft) 100,00 %
24.04.2018 03:55 8,2 C 86 % 1011,6 hPa 0,0 mm 0,0 km/h (0 Bft) S 186 0 min 0,000 mm 0,0 UV-I 0 W/m 6,0 C 8,2 C 0,0 km/h (0 Bft) 100,00 %
24.04.2018 03:50 8,2 C 86 % 1011,6 hPa 0,0 mm 0,0 km/h (0 Bft) S-SO 162 0 min 0,000 mm 0,0 UV-I 0 W/m 6,0 C 8,2 C 0,0 km/h (0 Bft) 100,00 %
24.04.2018 03:45 8,2 C 86 % 1011,9 hPa 0,0 mm 0,0 km/h (0 Bft) S-SW 211 0 min 0,000 mm 0,0 UV-I 0 W/m 6,0 C 8,2 C 0,0 km/h (0 Bft) 100,00 %
24.04.2018 03:40 8,1 C 86 % 1012,0 hPa 0,0 mm 0,5 km/h (0 Bft) SW 218 0 min 0,000 mm 0,0 UV-I 0 W/m 5,9 C 8,1 C 4,8 km/h (1 Bft) 100,00 %
24.04.2018 03:35 8,1 C 86 % 1011,9 hPa 0,0 mm 0,1 km/h (0 Bft) SW 214 0 min 0,000 mm 0,0 UV-I 0 W/m 5,9 C 8,1 C 3,2 km/h (1 Bft) 96,64 %
24.04.2018 03:30 8,1 C 86 % 1011,9 hPa 0,0 mm 0,0 km/h (0 Bft) SW 214 0 min 0,000 mm 0,0 UV-I 0 W/m 5,9 C 8,1 C 1,6 km/h (1 Bft) 97,22 %
24.04.2018 03:25 8,1 C 86 % 1011,9 hPa 0,0 mm 0,2 km/h (0 Bft) SW 216 0 min 0,000 mm 0,0 UV-I 0 W/m 5,9 C 8,1 C 4,8 km/h (1 Bft) 97,44 %
24.04.2018 03:20 8,0 C 86 % 1011,8 hPa 0,0 mm 0,2 km/h (0 Bft) S-SW 210 0 min 0,000 mm 0,0 UV-I 0 W/m 5,8 C 8,0 C 3,2 km/h (1 Bft) 98,31 %
24.04.2018 03:15 7,9 C 87 % 1011,9 hPa 0,0 mm 0,0 km/h (0 Bft) SW 214 0 min 0,000 mm 0,0 UV-I 0 W/m 5,9 C 7,9 C 1,6 km/h (1 Bft) 100,00 %
24.04.2018 03:10 7,9 C 87 % 1012,0 hPa 0,0 mm 0,1 km/h (0 Bft) S-SW 212 0 min 0,000 mm 0,0 UV-I 0 W/m 5,9 C 7,9 C 3,2 km/h (1 Bft) 99,17 %
24.04.2018 03:05 7,8 C 87 % 1012,1 hPa 0,0 mm 0,0 km/h (0 Bft) S-SW 212 0 min 0,000 mm 0,0 UV-I 0 W/m 5,8 C 7,8 C 0,0 km/h (0 Bft) 99,16 %
24.04.2018 03:00 7,8 C 87 % 1012,0 hPa 0,0 mm 0,0 km/h (0 Bft) S-SW 212 0 min 0,000 mm 0,0 UV-I 0 W/m 5,8 C 7,8 C 0,0 km/h (0 Bft) 99,07 %
_ Min-Zeit 03:00 16:40 02:30 - 03:00 - - - - - - 16:40 03:00 03:00 13:45
Minimum _ 7,8 C 58 % 1006,3 hPa - 0,0 km/h (0 Bft) - - - - - - 5,2 C 7,8 C 0,0 km/h (0 Bft) 95,50 %
_ Max-Zeit 15:15 02:25 03:05 22:40 16:25 - - 15:05 16:00 15:10 15:10 14:45 15:15 19:40 03:15
Maximum _ 15,0 C 92 % 1012,1 hPa 0,2 mm 12,6 km/h
W-SW (3 Bft)
- - 5 min 0,203 mm 3,4 UV-I 745 W/m 9,5 C 14,9 C 30,6 km/h
SW (5 Bft)
100,00 %
Durchschnitt _ 10,8 C 79 % 1010,3 hPa #2,8 mm 1,6 km/h (1 Bft) W - #0 min. #0,000 mm 0,0 UV-I 0 W/m 7,2 C 10,8 C 5,2 km/h (1 Bft) 98,92 %
Alle Angaben ohne Gewhr !